Flag for Brazil Weather past 2 weeks in Foz do Iguaçu, Paraná, Brazil

Now
70 °F

Clear.


Feels Like: 70 °F
Forecast: 70 / 82 °F
Wind: 7 mph from Northeast

Location: Foz Do Iguacu Aeroporto

Current Time: May 23, 2015 at 6:29:58 AM

Latest Report: May 23, 2015 at 6:00 AM


Visibility: 10 mi

Pressure: 29.95 "Hg

Humidity: 83%

Dew point: 64 °F

Location of Foz do IguaçuLocation

Historic Weather in Foz do Iguaçu — Graph

°F

Foz do Iguaçu temperature yesterday

Maximum temperature yesterday: 82 °F (at 12:00 PM)
Minimum temperature yesterday: 64 °F (at 4:00 AM)
Average temperature yesterday: 72 °F

Past Weeks' High & Low Weather Summary

 TemperatureHumidityPressure
High82 °F (May 22, 12:00 PM)100% (May 9, 12:00 AM)30.21 "Hg (May 9, 12:00 AM)
Low50 °F (May 12, 3:00 AM)53% (May 8, 12:00 PM)29.89 "Hg (May 10, 6:00 AM)
Average66 °F87%30.08 "Hg
* Reported May 8 5:00 AM — May 23 5:00 AM, Foz do Iguaçu, Weather by CustomWeather, © 2015

Note: Actual official high and low records may vary slightly from our data, if they occured in-between our weather recording intervals... More about our weather records

Advertising

Foz do Iguaçu weather history for previous 24 hours

 ConditionsComfort  
Time TempWeatherWind HumidityBarometerVisibility
5:00 AM
Sat, May 23
68 °FClear.7 mph88%29.95 "Hg10 mi
4:00 AM68 °FClear.9 mph94%29.95 "Hg10 mi
3:00 AM70 °FClear.5 mph88%29.95 "Hg10 mi
2:00 AM70 °FClear.7 mph88%29.98 "Hg10 mi
1:00 AM72 °FClear.5 mph83%29.98 "Hg10 mi
12:00 AM72 °FClear.7 mph83%29.98 "Hg10 mi
11:00 PM
Fri, May 22
72 °FClear.8 mph83%29.98 "Hg10 mi
10:00 PM73 °FClear.8 mph83%29.98 "Hg10 mi
9:00 PM73 °FClear.7 mph83%29.98 "Hg10 mi
8:00 PM73 °FClear.7 mph83%29.98 "Hg10 mi
7:00 PM73 °FClear.5 mph83%29.98 "Hg10 mi
6:00 PM75 °FClear.2 mph83%29.98 "Hg10 mi
5:00 PM77 °FClear.5 mph79%29.98 "Hg10 mi
4:00 PM79 °FPartly sunny.7 mph70%30.01 "HgN/A
3:00 PM79 °FPartly sunny.10 mph70%30.01 "HgN/A
2:00 PM82 °FScattered clouds.12 mph58%30.04 "HgN/A
1:00 PM82 °FScattered clouds.12 mph58%30.04 "HgN/A
12:00 PM82 °FScattered clouds.16 mph58%30.07 "HgN/A
11:00 AM77 °FSunny.8 mph69%30.09 "Hg10 mi
10:00 AM73 °FSunny.9 mph78%30.09 "Hg10 mi
9:00 AM70 °FSunny.9 mph83%30.09 "Hg10 mi
8:00 AM66 °FSunny.9 mph88%30.09 "Hg10 mi
7:00 AM64 °FSunny.7 mph94%30.09 "Hg10 mi
6:00 AM64 °FClear.6 mph94%30.07 "Hg10 mi
Weather by CustomWeather, © 2015

See weather overviewHow to use our weather pages